Torna al catalogo

ATLAS 5 CENTAUR DEB

AttivoHEO
NORAD 44682·DEBRIS·🇺🇸 United States

Lanciato Oct 17, 2018 da Cape Canaveral Space Force Station

Loading…

Prossimi Passaggi (prossime 24 ore)

TLE

In scadenzaSource: Space-Track

Epoca: Aug 28, 2026, 11:32 UTC

1 44682U 18079AU  26240.48081970 -.00000157  00000-0  00000-0 0  9994
2 44682  13.4665  30.0624 4639360 323.6264  12.2258  1.81923697 48179

Traccia ATLAS 5 CENTAUR DEB in tempo reale con AllMySat

Download on the App Store